Flag for U.S.A. Weather past 2 weeks in Wright, Florida, U.S.A.

Now
71 °F

Scattered clouds.


Feels Like: 71 °F
Forecast: 70 / 85 °F
Wind: 10 mph from Northeast

Location: Hurlburt Field

Current Time: Sep 20, 2014 at 9:49:35 AM

Latest Report: Sep 20, 2014 at 7:58 AM


Visibility: 10 mi

Pressure: 29.98 "Hg

Humidity: 82%

Dew point: 65 °F

Location of WrightLocation

Historic Weather in Wright — Graph

°F

Wright temperature yesterday

Maximum temperature yesterday: 84 °F (at 2:58 PM)
Minimum temperature yesterday: 72 °F (at 11:58 PM)
Average temperature yesterday: 78 °F

Past Weeks' High & Low Weather Summary

 TemperatureHumidityPressure
High91 °F (Sep 13, 1:58 PM)89% (Sep 8, 2:03 AM)30.14 "Hg (Sep 8, 2:03 AM)
Low69 °F (Sep 20, 5:58 AM)48% (Sep 13, 3:58 PM)29.87 "Hg (Sep 17, 5:58 PM)
Average80 °F73%29.99 "Hg
* Reported Sep 5 7:58 AM — Sep 20 7:58 AM, Wright, Weather by CustomWeather, © 2014

Note: Actual official high and low records may vary slightly from our data, if they occured in-between our weather recording intervals... More about our weather records

Advertising

Wright weather history for previous 24 hours

 ConditionsComfort  
Time TempWeatherWind HumidityBarometerVisibility
7:58 AM
Sep 20
71 °FScattered clouds.10 mph82%29.98 "Hg10 mi
6:58 AM69 °FSunny.8 mph84%29.98 "Hg10 mi
5:58 AM69 °FClear.7 mph81%29.96 "Hg10 mi
4:58 AM69 °FClear.6 mph80%29.96 "Hg10 mi
3:58 AM70 °FClear.7 mph78%29.96 "Hg10 mi
2:58 AM71 °FClear.6 mph77%29.96 "Hg10 mi
1:58 AM71 °FClear.5 mph76%29.96 "Hg10 mi
12:58 AM71 °FClear.6 mph79%29.97 "Hg10 mi
11:58 PM
Sep 19
72 °FClear.3 mph77%29.98 "Hg10 mi
10:58 PM74 °FClear.6 mph70%29.99 "Hg10 mi
9:58 PM78 °FClear.7 mph64%29.99 "Hg10 mi
8:58 PM79 °FClear.5 mph59%29.98 "Hg10 mi
7:58 PM80 °FClear.5 mph60%29.96 "Hg10 mi
6:58 PM81 °FPassing clouds.13 mph61%29.96 "Hg10 mi
5:58 PM82 °FSunny.7 mph56%29.94 "Hg10 mi
4:58 PM83 °FSunny.8 mph56%29.93 "Hg10 mi
3:58 PM84 °FSunny.9 mph52%29.93 "Hg10 mi
2:58 PM84 °FScattered clouds.7 mph53%29.94 "Hg10 mi
1:58 PM84 °FScattered clouds.10 mph55%29.96 "Hg10 mi
12:58 PM81 °FLight rain. Broken clouds.15 mph70%29.97 "Hg10 mi
11:58 AM82 °FBroken clouds.5 mph62%29.98 "Hg10 mi
10:58 AM79 °FBroken clouds.8 mph65%29.98 "Hg10 mi
9:58 AM77 °FPartly sunny.6 mph68%29.97 "Hg10 mi
Weather by CustomWeather, © 2014

See weather overviewHow to use our weather pages